Tracking 19634 objects as of 21-May-2019
HD Live streaming from Space Station
objects crossing your sky now

THOR 2A

Track THOR 2A now!
THOR 2A is classified as:


NORAD ID: 24808
Int'l Code: 1997-025A
Perigee: 36,131.6 km
Apogee: 36,192.3 km
Inclination: 7.9 °
Period: 1,454.9 minutes
Semi major axis: 42532 km
RCS: 15.8489 m2 (large)
Launch date: May 20, 1997
Source: Norway (NOR)
Launch site: AIR FORCE EASTERN TEST RANGE (AFETR)

15 Ku-band; Nordic region, northern Europe.
aabbcc
Your satellite tracking list
Your tracking list is empty




NASA's NSSDC Master Catalog

Two Line Element Set (TLE):
1 24808U 97025A   19140.18591060 -.00000210  00000-0  00000+0 0  9993
2 24808   7.9079  48.1733 0007140 290.8271 272.7364  0.98972602 80285
Source of the keplerian elements: AFSPC